• In Uzbekistan
  • List of Countries
  • For 7 days
  • Water Temperature
  • Satellite Maps
  • Weather Map
  • Weather Widgets
  • user-avatar
    Login

    Hourly Weather Omagh

    Today, 20 September, Thursday

    Time Temperature Precipitation Wind Pressure Humidity
    00:00 +8°C° 0 mm 5 mps 746 mmHg 80%
    01:00 +7°C° 0 mm 5 mps 747 mmHg 81%
    02:00 +7°C° 0 mm 5 mps 747 mmHg 82%
    03:00 +7°C° 0 mm 4 mps 747 mmHg 83%
    04:00 +7°C° 0 mm 4 mps 747 mmHg 85%
    05:00 +6°C° 0 mm 4 mps 747 mmHg 87%
    06:00 +7°C° 0 mm 3 mps 747 mmHg 89%
    07:00 +8°C° 0 mm 3 mps 747 mmHg 86%
    08:00 +9°C° 0 mm 3 mps 747 mmHg 82%
    09:00 +10°C° 0 mm 3 mps 747 mmHg 78%
    10:00 +11°C° 0 mm 3 mps 747 mmHg 76%
    11:00 +12°C° 0 mm 2 mps 747 mmHg 74%
    12:00 +13°C° 0 mm 2 mps 746 mmHg 71%
    13:00 +12°C° 0.1 mm 2 mps 745 mmHg 74%
    14:00 +12°C° 0.1 mm 1 mps 745 mmHg 77%
    15:00 +12°C° 0.1 mm 1 mps 744 mmHg 79%
    16:00 +11°C° 0.5 mm 1 mps 743 mmHg 84%
    17:00 +10°C° 0.5 mm 1 mps 743 mmHg 89%
    18:00 +8°C° 0.5 mm 0 mps 742 mmHg 94%
    19:00 +9°C° 0.4 mm 1 mps 742 mmHg 94%
    20:00 +9°C° 0.4 mm 1 mps 742 mmHg 94%
    21:00 +8°C° 0.4 mm 2 mps 742 mmHg 94%
    22:00 +7°C° 0.1 mm 2 mps 742 mmHg 94%
    23:00 +7°C° 0.1 mm 3 mps 742 mmHg 93%

    Tomorrow, 21 September, Friday

    Time Temperature Precipitation Wind Pressure Humidity
    00:00 +7°C° 0.1 mm 3 mps 742 mmHg 93%
    01:00 +7°C° 0 mm 3 mps 742 mmHg 92%
    02:00 +6°C° 0 mm 4 mps 743 mmHg 92%
    03:00 +6°C° 0 mm 4 mps 743 mmHg 92%
    04:00 +6°C° 0 mm 4 mps 743 mmHg 91%
    05:00 +6°C° 0 mm 4 mps 743 mmHg 91%
    06:00 +6°C° 0 mm 5 mps 743 mmHg 91%
    07:00 +7°C° 0.2 mm 5 mps 743 mmHg 88%
    08:00 +8°C° 0.2 mm 6 mps 744 mmHg 86%
    09:00 +9°C° 0.2 mm 6 mps 744 mmHg 83%
    10:00 +9°C° 0.2 mm 6 mps 745 mmHg 83%
    11:00 +10°C° 0.2 mm 6 mps 746 mmHg 82%
    12:00 +10°C° 0.2 mm 6 mps 747 mmHg 81%
    13:00 +10°C° 0.4 mm 6 mps 748 mmHg 81%
    14:00 +10°C° 0.4 mm 6 mps 749 mmHg 81%
    15:00 +10°C° 0.4 mm 6 mps 750 mmHg 81%
    16:00 +10°C° 0.2 mm 5 mps 751 mmHg 83%
    17:00 +9°C° 0.2 mm 5 mps 752 mmHg 84%
    18:00 +8°C° 0.2 mm 4 mps 752 mmHg 85%
    19:00 +7°C° 0 mm 4 mps 753 mmHg 86%
    20:00 +7°C° 0 mm 4 mps 753 mmHg 86%
    21:00 +7°C° 0 mm 3 mps 754 mmHg 87%
    22:00 +5°C° 0 mm 3 mps 755 mmHg 88%
    23:00 +5°C° 0 mm 3 mps 755 mmHg 88%

    Day after tomorrow, 22 September, Saturday

    Time Temperature Precipitation Wind Pressure Humidity
    00:00 +5°C° 0 mm 3 mps 755 mmHg 89%
    01:00 +5°C° 0 mm 3 mps 755 mmHg 90%
    02:00 +6°C° 0 mm 2 mps 755 mmHg 91%
    03:00 +5°C° 0 mm 2 mps 755 mmHg 91%
    04:00 +5°C° 0 mm 2 mps 755 mmHg 92%
    05:00 +5°C° 0 mm 2 mps 755 mmHg 92%
    06:00 +5°C° 0 mm 2 mps 755 mmHg 92%
    07:00 +6°C° 0 mm 2 mps 755 mmHg 89%
    08:00 +8°C° 0 mm 1 mps 755 mmHg 86%
    09:00 +10°C° 0 mm 1 mps 755 mmHg 83%
    10:00 +10°C° 0 mm 1 mps 755 mmHg 80%
    11:00 +11°C° 0 mm 1 mps 755 mmHg 77%
    12:00 +12°C° 0 mm 1 mps 755 mmHg 74%
    13:00 +12°C° 0.1 mm 1 mps 755 mmHg 75%
    14:00 +12°C° 0.1 mm 1 mps 755 mmHg 77%
    15:00 +12°C° 0.1 mm 1 mps 754 mmHg 78%
    16:00 +11°C° 0.1 mm 1 mps 754 mmHg 82%
    17:00 +11°C° 0.1 mm 1 mps 753 mmHg 86%
    18:00 +10°C° 0.1 mm 1 mps 753 mmHg 90%
    19:00 +10°C° 0.1 mm 1 mps 753 mmHg 91%
    20:00 +9°C° 0.1 mm 1 mps 753 mmHg 92%
    21:00 +9°C° 0.1 mm 1 mps 753 mmHg 93%
    22:00 +9°C° 0.2 mm 1 mps 753 mmHg 93%
    23:00 +9°C° 0.2 mm 1 mps 753 mmHg 93%

    23 September, Sunday

    Time Temperature Precipitation Wind Pressure Humidity
    00:00 +8°C° 0.2 mm 2 mps 753 mmHg 93%
    01:00 +7°C° 0.5 mm 2 mps 753 mmHg 92%
    02:00 +7°C° 0.5 mm 2 mps 753 mmHg 92%
    03:00 +7°C° 0.5 mm 2 mps 753 mmHg 92%
    04:00 +7°C° 0.1 mm 2 mps 753 mmHg 92%
    05:00 +7°C° 0.1 mm 2 mps 753 mmHg 92%
    06:00 +6°C° 0.1 mm 2 mps 754 mmHg 92%
    07:00 +7°C° 0.1 mm 3 mps 755 mmHg 90%
    08:00 +8°C° 0.1 mm 3 mps 755 mmHg 88%
    09:00 +8°C° 0.1 mm 4 mps 756 mmHg 86%
    10:00 +10°C° 0.2 mm 4 mps 757 mmHg 81%
    11:00 +10°C° 0.2 mm 4 mps 758 mmHg 76%
    12:00 +11°C° 0.2 mm 4 mps 759 mmHg 71%
    13:00 +11°C° 0.1 mm 4 mps 760 mmHg 69%
    14:00 +11°C° 0.1 mm 4 mps 761 mmHg 66%
    15:00 +12°C° 0.1 mm 4 mps 762 mmHg 64%
    16:00 +11°C° 0 mm 4 mps 763 mmHg 68%
    17:00 +10°C° 0 mm 3 mps 763 mmHg 73%
    18:00 +8°C° 0 mm 2 mps 764 mmHg 77%
    19:00 +7°C° 0 mm 2 mps 765 mmHg 81%
    20:00 +6°C° 0 mm 2 mps 766 mmHg 85%
    21:00 +5°C° 0 mm 2 mps 767 mmHg 88%
    22:00 +6°C° 0 mm 2 mps 767 mmHg 88%
    23:00 +6°C° 0 mm 2 mps 768 mmHg 88%

    24 September, Monday

    Time Temperature Precipitation Wind Pressure Humidity
    00:00 +6°C° 0 mm 2 mps 768 mmHg 88%
    01:00 +6°C° 0 mm 2 mps 769 mmHg 88%
    02:00 +6°C° 0 mm 2 mps 769 mmHg 88%
    03:00 +6°C° 0 mm 2 mps 769 mmHg 88%
    04:00 +6°C° 0 mm 2 mps 770 mmHg 89%
    05:00 +5°C° 0 mm 2 mps 770 mmHg 90%
    06:00 +5°C° 0 mm 2 mps 770 mmHg 90%
    07:00 +7°C° 0 mm 2 mps 771 mmHg 85%
    08:00 +8°C° 0 mm 3 mps 771 mmHg 80%
    09:00 +10°C° 0 mm 3 mps 771 mmHg 75%
    10:00 +11°C° 0 mm 3 mps 772 mmHg 71%
    11:00 +12°C° 0 mm 4 mps 772 mmHg 67%
    12:00 +13°C° 0 mm 4 mps 772 mmHg 63%
    13:00 +13°C° 0 mm 4 mps 772 mmHg 63%
    14:00 +13°C° 0 mm 4 mps 772 mmHg 62%
    15:00 +13°C° 0 mm 4 mps 772 mmHg 61%
    16:00 +12°C° 0 mm 3 mps 772 mmHg 67%
    17:00 +12°C° 0 mm 2 mps 772 mmHg 73%
    18:00 +9°C° 0 mm 2 mps 771 mmHg 79%
    19:00 +8°C° 0 mm 2 mps 772 mmHg 84%
    20:00 +7°C° 0 mm 2 mps 772 mmHg 88%
    21:00 +6°C° 0 mm 2 mps 772 mmHg 92%
    22:00 +6°C° 0 mm 2 mps 772 mmHg 93%
    23:00 +6°C° 0 mm 2 mps 772 mmHg 93%

    25 September, Tuesday

    Time Temperature Precipitation Wind Pressure Humidity
    00:00 +5°C° 0 mm 2 mps 772 mmHg 94%
    01:00 +5°C° 0 mm 2 mps 771 mmHg 95%
    02:00 +5°C° 0 mm 2 mps 771 mmHg 95%
    03:00 +4°C° 0 mm 2 mps 770 mmHg 95%
    04:00 +4°C° 0 mm 2 mps 770 mmHg 95%
    05:00 +4°C° 0 mm 2 mps 770 mmHg 95%
    06:00 +4°C° 0 mm 2 mps 769 mmHg 95%
    07:00 +4°C° 0 mm 3 mps 769 mmHg 90%
    08:00 +7°C° 0 mm 3 mps 769 mmHg 84%
    09:00 +8°C° 0 mm 4 mps 768 mmHg 78%
    10:00 +9°C° 0 mm 5 mps 768 mmHg 73%
    11:00 +10°C° 0 mm 5 mps 767 mmHg 68%
    12:00 +13°C° 0 mm 6 mps 767 mmHg 63%
    13:00 +13°C° 0 mm 6 mps 766 mmHg 66%
    14:00 +13°C° 0 mm 6 mps 765 mmHg 68%
    15:00 +14°C° 0 mm 6 mps 765 mmHg 70%
    16:00 +13°C° 0 mm 6 mps 764 mmHg 73%
    17:00 +13°C° 0 mm 5 mps 764 mmHg 76%
    18:00 +12°C° 0 mm 5 mps 763 mmHg 79%
    19:00 +10°C° 0 mm 5 mps 763 mmHg 81%
    20:00 +10°C° 0 mm 5 mps 763 mmHg 82%
    21:00 +9°C° 0 mm 6 mps 763 mmHg 83%
    22:00 +9°C° 0 mm 6 mps 763 mmHg 84%
    23:00 +9°C° 0 mm 6 mps 762 mmHg 85%
    Show more